This is the latest recevied weather packets stored in our database for station/object OK9CPU-9. If no packets are shown the sender has not sent any weather packets the latest 10 day(s).
| Time | Temp. | Humidity | Pressure | Rain* | Wind** | Luminosity | Snow |
|---|---|---|---|---|---|---|---|
| 1777167316 | 7.22° C | 31% | 1014.2 hPa | - | - | - | - |
| 1777166321 | 6.67° C | 31% | 1014.1 hPa | - | - | - | - |
| 1777165326 | 6.67° C | 32% | 1013.9 hPa | - | - | - | - |
| 1777164331 | 7.22° C | 32% | 1013.7 hPa | - | - | - | - |
| 1777163336 | 7.22° C | 32% | 1013.6 hPa | - | - | - | - |
| 1777162341 | 7.22° C | 32% | 1013.4 hPa | - | - | - | - |
| 1777160351 | 7.22° C | 33% | 1013.3 hPa | - | - | - | - |
| 1777158361 | 7.78° C | 33% | 1013.1 hPa | - | - | - | - |
| 1777157373 | 7.78° C | 33% | 1012.9 hPa | - | - | - | - |
| 1777156371 | 8.33° C | 33% | 1012.8 hPa | - | - | - | - |
| 1777155383 | 8.33° C | 34% | 1013 hPa | - | - | - | - |
| 1777154381 | 8.33° C | 34% | 1012.9 hPa | - | - | - | - |
| 1777153386 | 8.89° C | 34% | 1012.9 hPa | - | - | - | - |
| 1777152398 | 8.89° C | 34% | 1012.9 hPa | - | - | - | - |
| 1777151395 | 9.44° C | 35% | 1012.8 hPa | - | - | - | - |
| 1777150400 | 10° C | 35% | 1012.8 hPa | - | - | - | - |
| 1777149407 | 11.11° C | 35% | 1012.9 hPa | - | - | - | - |
| 1777148418 | 11.67° C | 35% | 1012.8 hPa | - | - | - | - |
| 1777146420 | 13.33° C | 34% | 1012.6 hPa | - | - | - | - |
| 1777145425 | 13.89° C | 34% | 1012.5 hPa | - | - | - | - |
| 1777144430 | 13.89° C | 34% | 1012.3 hPa | - | - | - | - |
| 1777143435 | 14.44° C | 35% | 1012.3 hPa | - | - | - | - |
| 1777142440 | 15.56° C | 34% | 1012 hPa | - | - | - | - |
| 1777141452 | 16.67° C | 34% | 1012 hPa | - | - | - | - |
| 1777140450 | 17.22° C | 33% | 1011.8 hPa | - | - | - | - |
* Rain since midnight (hover to see other rain measurements)
** Current wind speed in m/s (hover to see current wind gust speed)